[Iaude] MPEC N59: 2024 NY [a=1.12,e=0.50,i=9.3,H=22.2]
    mpec at cfa.harvard.edu 
    mpec at cfa.harvard.edu
       
    Fri Jul  5 13:21:59 EDT 2024
    
    
  
M.P.E.C. 2024-N59                                  Issued 2024 July 5, 17:20 UT
     The Minor Planet Electronic Circulars contain information on unusual
         minor planets, routine data on comets and natural satellites,
         and occasional editorial announcements.  They are published
    on behalf of Division F of the International Astronomical Union by the
          Minor Planet Center, Smithsonian Astrophysical Observatory,
                          Cambridge, MA 02138, U.S.A.
			  
             Prepared using the Tamkin Foundation Computer Network
                              MPC at CFA.HARVARD.EDU
            URL https://www.minorplanetcenter.net/    ISSN 1523-6714
                                    2024 NY                                     
Observations:
     K24N00Y  C2024 06 28.29823315 33 37.149-11 34 47.58         21.21GVEN059F51
     K24N00Y  C2024 06 28.30898115 33 35.083-11 34 32.29         21.61GVEN059F51
     K24N00Y  C2024 06 28.33046115 33 30.998-11 33 59.94         21.72GVEN059F51
     K24N00Y* C2024 07 02.29605915 21 59.920-09 56 19.37         22.62wXEN059F52
     K24N00Y  C2024 07 02.30733015 21 57.959-09 56 03.49         22.47wXEN059F52
     K24N00Y  C2024 07 02.31857915 21 55.995-09 55 47.22         22.70wXEN059F52
     K24N00Y  C2024 07 02.42683415 21 37.362-09 53 10.69         22.27GVEN059F52
     K24N00Y  C2024 07 02.42766215 21 37.215-09 53 09.56         21.76GVEN059F52
     K24N00Y 3C2024 07 03.37308915 19 04.359-09 30 45.62         22.42GVEN059T14
     K24N00Y 3C2024 07 03.37414315 19 04.188-09 30 44.25         22.28GVEN059T14
     K24N00Y 3C2024 07 03.37528715 19 03.993-09 30 42.58         22.17GVEN059T14
Observer details:
F51 Pan-STARRS 1, Haleakala.  Observers J. Herman, T. Lowe, P. Minguez, A.
    Schultz, I. Smith.  Measurers K. Chambers, T. de Boer, J. Fairlamb, H.
    Gao, M. Huber, C.-C. Lin, E. Magnier, Y. Ramanjooloo, R. Wainscoat, R.
    Weryk.  1.8-m Ritchey-Chretien + CCD.
F52 Pan-STARRS 2, Haleakala.  Observers J. Herman, T. Lowe, P. Minguez, A.
    Schultz, I. Smith.  Measurers K. Chambers, T. de Boer, J. Fairlamb, H.
    Gao, M. Huber, C.-C. Lin, E. Magnier, Y. Ramanjooloo, R. Wainscoat, R.
    Weryk.  1.8-m Ritchey-Chretien + CCD.
T14 Canada-France-Hawaii Telescope, Maunakea.  Observers R. Wainscoat, H.
    Januszewski, V. Khatu.  Measurers R. Weryk, R. Wainscoat.  3.6-m f/4.1
    reflector + CCD.
Orbital elements:
2024 NY                                                  Earth MOID = 0.1073 AU
Epoch 2024 Mar. 31.0 TT = JDT 2460400.5                 Bell                    
M 198.51980              (2000.0)            P               Q                  
n   0.83651249     Peri.  152.03354     +0.71848544     -0.67836822             
a   1.1155467      Node   251.55112     +0.60412639     +0.71808966             
e   0.5002264      Incl.    9.31891     +0.34468823     +0.15544709             
P   1.18           H   22.27          G   0.15           U   8                  
Residuals in seconds of arc
240628 F51  0.1-  0.6+    240702 F52  0.0   0.1-    240703 T14  0.0   0.1+
240628 F51  0.1-  0.4-    240702 F52  0.1-  0.0     240703 T14  0.0   0.1-
240628 F51  0.5+  0.6-    240702 F52  0.0   0.1+    240703 T14  0.0   0.0
240702 F52  0.1+  0.2+    240702 F52  0.1-  0.0
Ephemeris:
2024 NY                  a,e,i = 1.12, 0.50, 9                   q = 0.5575
Date    TT    R. A. (2000) Decl.     Delta      r    Elong.  Phase     V
2024 06 05    16 54 18.5 -20 58 19   0.4496  1.4641   178.4     1.1    21.5
...
2024 06 20    16 01 06.4 -15 08 54   0.4028  1.3847   152.0    20.2    22.0
...
2024 06 28    15 34 32.1 -11 42 10   0.3986  1.3367   137.2    31.1    22.2
...
2024 07 04    15 17 26.1 -09 15 57   0.4023  1.2981   126.8    38.9    22.4
2024 07 05    15 14 51.9 -08 52 56   0.4033  1.2915   125.1    40.1    22.4
2024 07 06    15 12 22.9 -08 30 21   0.4044  1.2848   123.5    41.3    22.5
...
2024 07 12    14 59 13.2 -06 24 41   0.4127  1.2432   114.0    48.3    22.6
...
2024 07 20    14 46 00.5 -04 03 07   0.4253  1.1843   102.6    56.8    22.8
...
2024 08 04    14 30 54.4 -00 37 41   0.4418  1.0632    84.0    71.6    23.1
M. P. C. Staff               (C) Copyright 2024 MPC           M.P.E.C. 2024-N59
    
    
More information about the Iaude
mailing list